Precipitable_Water
0.23 0.23 0.25 0.25 0.25 0.28 0.29 0.31 0.28 0.31 0.34 0.41 0.49 0.51 0.52 0.56 0.55 0.55 0.55 0.57 0.57 0.59 0.57 0.54 0.49 0.47 0.48 0.51 0.48 0.44 0.40 0.39 0.39 0.39 0.41 0.40 0.37 0.37 0.37 0.35 0.31 0.30 0.29 0.28
0.16 0.25 0.26 0.21 0.26 0.30 0.31 0.32 0.34 0.36 0.36 0.47 0.51 0.54 0.53 0.54 0.54 0.53 0.54 0.56 0.58 0.57 0.53 0.48 0.47 0.46 0.48 0.49 0.43 0.43 0.41 0.38 0.38 0.40 0.42 0.41 0.36 0.34 0.33 0.28 0.29 0.29 0.27 0.25
0.15 0.23 0.22 0.26 0.32 0.32 0.34 0.38 0.38 0.34 0.40 0.46 0.50 0.52 0.54 0.54 0.55 0.54 0.56 0.57 0.56 0.53 0.51 0.47 0.44 0.42 0.39 0.44 0.46 0.43 0.43 0.39 0.41 0.43 0.39 0.35 0.33 0.32 0.28 0.28 0.29 0.27 0.25 0.25
0.18 0.23 0.14 0.30 0.36 0.37 0.37 0.39 0.41 0.42 0.45 0.52 0.55 0.56 0.55 0.58 0.57 0.57 0.54 0.54 0.53 0.50 0.46 0.43 0.39 0.36 0.39 0.41 0.41 0.40 0.40 0.42 0.37 0.42 0.41 0.35 0.33 0.32 0.28 0.30 0.29 0.27 0.26 0.26
0.19 0.20 0.23 0.29 0.37 0.36 0.34 0.34 0.46 0.48 0.53 0.56 0.57 0.54 0.50 0.61 0.59 0.53 0.52 0.51 0.47 0.45 0.44 0.41 0.41 0.42 0.37 0.34 0.33 0.33 0.35 0.41 0.46 0.45 0.41 0.38 0.33 0.33 0.31 0.30 0.29 0.29 0.27 0.28
0.25 0.19 0.16 0.29 0.42 0.47 0.44 0.31 0.55 0.56 0.55 0.54 0.52 0.40 0.45 0.53 0.52 0.49 0.48 0.43 0.40 0.40 0.40 0.42 0.40 0.38 0.34 0.30 0.29 0.31 0.36 0.42 0.42 0.40 0.39 0.38 0.37 0.38 0.33 0.32 0.31 0.28 0.27 0.27
0.26 0.23 0.27 0.38 0.45 0.49 0.29 0.38 0.59 0.59 0.59 0.56 0.50 0.51 0.52 0.51 0.48 0.44 0.40 0.37 0.34 0.33 0.32 0.33 0.33 0.31 0.28 0.27 0.26 0.28 0.32 0.36 0.39 0.40 0.41 0.44 0.43 0.37 0.33 0.33 0.28 0.27 0.25 0.27
0.27 0.24 0.21 0.48 0.48 0.41 0.51 0.60 0.64 0.62 0.61 0.57 0.55 0.53 0.48 0.44 0.39 0.36 0.32 0.29 0.27 0.25 0.25 0.27 0.28 0.28 0.27 0.26 0.27 0.28 0.31 0.31 0.32 0.38 0.42 0.41 0.36 0.35 0.34 0.26 0.24 0.24 0.24 0.23
0.32 0.32 0.50 0.58 0.57 0.64 0.67 0.63 0.64 0.63 0.62 0.58 0.53 0.48 0.43 0.37 0.34 0.28 0.27 0.26 0.25 0.24 0.24 0.25 0.27 0.29 0.29 0.30 0.30 0.31 0.31 0.32 0.34 0.39 0.41 0.41 0.40 0.35 0.25 0.23 0.23 0.23 0.22 0.22
0.37 0.43 0.49 0.57 0.64 0.67 0.67 0.66 0.67 0.66 0.58 0.51 0.47 0.42 0.38 0.32 0.27 0.27 0.26 0.25 0.26 0.24 0.25 0.27 0.28 0.30 0.31 0.33 0.33 0.32 0.32 0.32 0.34 0.34 0.35 0.37 0.34 0.26 0.23 0.23 0.23 0.22 0.22 0.21
0.38 0.48 0.55 0.65 0.67 0.69 0.67 0.66 0.62 0.56 0.50 0.45 0.42 0.37 0.30 0.27 0.26 0.26 0.26 0.26 0.25 0.26 0.25 0.25 0.26 0.29 0.32 0.33 0.33 0.33 0.33 0.33 0.32 0.34 0.35 0.31 0.27 0.24 0.23 0.25 0.25 0.23 0.22 0.21
0.37 0.54 0.57 0.61 0.70 0.71 0.64 0.58 0.54 0.46 0.44 0.42 0.35 0.28 0.27 0.25 0.24 0.24 0.23 0.22 0.23 0.25 0.25 0.26 0.28 0.30 0.31 0.33 0.34 0.34 0.32 0.32 0.31 0.28 0.26 0.25 0.22 0.22 0.26 0.26 0.27 0.26 0.25 0.23
0.52 0.65 0.67 0.69 0.69 0.66 0.57 0.54 0.47 0.45 0.39 0.30 0.27 0.26 0.24 0.21 0.21 0.21 0.22 0.23 0.24 0.25 0.27 0.29 0.31 0.33 0.34 0.35 0.36 0.35 0.33 0.30 0.25 0.21 0.23 0.22 0.23 0.23 0.21 0.24 0.26 0.26 0.26 0.24
0.65 0.66 0.60 0.62 0.57 0.59 0.51 0.48 0.44 0.35 0.29 0.28 0.25 0.23 0.21 0.21 0.22 0.22 0.22 0.24 0.25 0.26 0.28 0.30 0.31 0.34 0.37 0.37 0.36 0.34 0.32 0.27 0.24 0.23 0.23 0.24 0.23 0.22 0.23 0.22 0.21 0.22 0.26 0.25
0.64 0.68 0.65 0.63 0.55 0.49 0.45 0.37 0.31 0.27 0.26 0.23 0.22 0.22 0.23 0.22 0.21 0.21 0.23 0.24 0.26 0.27 0.29 0.31 0.32 0.34 0.35 0.35 0.33 0.31 0.28 0.24 0.22 0.22 0.24 0.23 0.23 0.23 0.23 0.22 0.22 0.22 0.23 0.24
0.61 0.58 0.54 0.49 0.45 0.40 0.35 0.30 0.26 0.25 0.23 0.21 0.22 0.22 0.23 0.22 0.22 0.22 0.23 0.25 0.24 0.24 0.29 0.33 0.34 0.35 0.34 0.34 0.32 0.29 0.27 0.25 0.22 0.22 0.23 0.23 0.23 0.22 0.22 0.23 0.22 0.22 0.22 0.22
0.53 0.48 0.46 0.43 0.38 0.34 0.29 0.29 0.28 0.24 0.21 0.22 0.22 0.22 0.22 0.21 0.21 0.21 0.23 0.25 0.27 0.29 0.33 0.35 0.34 0.35 0.34 0.34 0.31 0.27 0.24 0.23 0.23 0.23 0.22 0.24 0.22 0.23 0.23 0.23 0.22 0.22 0.22 0.23
0.53 0.49 0.43 0.37 0.33 0.30 0.29 0.29 0.25 0.23 0.22 0.23 0.22 0.22 0.21 0.21 0.21 0.22 0.24 0.26 0.27 0.29 0.33 0.36 0.37 0.34 0.34 0.33 0.30 0.26 0.23 0.22 0.22 0.23 0.23 0.23 0.23 0.23 0.22 0.23 0.23 0.22 0.22 0.22
0.44 0.41 0.38 0.34 0.32 0.30 0.27 0.23 0.23 0.23 0.23 0.23 0.23 0.22 0.23 0.24 0.24 0.24 0.26 0.26 0.25 0.26 0.31 0.38 0.36 0.34 0.34 0.32 0.27 0.24 0.23 0.23 0.22 0.22 0.23 0.24 0.24 0.23 0.23 0.23 0.23 0.22 0.21 0.22
0.39 0.37 0.34 0.30 0.27 0.24 0.22 0.22 0.24 0.23 0.24 0.25 0.25 0.24 0.22 0.23 0.24 0.24 0.26 0.25 0.28 0.31 0.36 0.38 0.36 0.33 0.33 0.30 0.25 0.24 0.23 0.22 0.22 0.23 0.23 0.23 0.23 0.23 0.24 0.23 0.23 0.23 0.22 0.22
0.33 0.32 0.29 0.26 0.24 0.23 0.24 0.24 0.24 0.23 0.24 0.26 0.25 0.24 0.24 0.25 0.26 0.28 0.27 0.24 0.29 0.35 0.37 0.37 0.36 0.34 0.32 0.30 0.28 0.26 0.24 0.24 0.23 0.23 0.23 0.23 0.23 0.23 0.24 0.24 0.23 0.23 0.23 0.23
0.30 0.27 0.25 0.23 0.22 0.22 0.24 0.26 0.26 0.26 0.25 0.26 0.28 0.28 0.27 0.26 0.28 0.28 0.31 0.30 0.34 0.37 0.36 0.36 0.35 0.35 0.32 0.30 0.28 0.26 0.25 0.24 0.24 0.23 0.22 0.22 0.23 0.23 0.22 0.22 0.22 0.23 0.24 0.23
0.27 0.24 0.23 0.23 0.23 0.24 0.25 0.26 0.26 0.26 0.27 0.29 0.29 0.29 0.29 0.30 0.31 0.28 0.25 0.33 0.36 0.36 0.36 0.36 0.37 0.36 0.34 0.32 0.30 0.27 0.24 0.24 0.23 0.23 0.23 0.24 0.24 0.24 0.24 0.23 0.23 0.23 0.23 0.23
0.24 0.24 0.23 0.25 0.25 0.24 0.22 0.25 0.29 0.32 0.31 0.31 0.32 0.33 0.33 0.31 0.32 0.34 0.36 0.35 0.36 0.35 0.35 0.36 0.37 0.37 0.36 0.34 0.33 0.32 0.27 0.24 0.24 0.24 0.24 0.24 0.24 0.25 0.26 0.25 0.24 0.25 0.25 0.24
0.23 0.23 0.23 0.23 0.24 0.25 0.28 0.31 0.31 0.31 0.34 0.33 0.32 0.34 0.35 0.37 0.33 0.32 0.35 0.35 0.36 0.35 0.35 0.36 0.37 0.37 0.36 0.34 0.34 0.33 0.32 0.26 0.24 0.24 0.24 0.24 0.24 0.24 0.25 0.26 0.26 0.27 0.27 0.26
0.23 0.23 0.24 0.25 0.25 0.26 0.28 0.30 0.30 0.34 0.34 0.30 0.32 0.34 0.34 0.35 0.35 0.34 0.35 0.35 0.35 0.36 0.35 0.36 0.36 0.36 0.36 0.35 0.35 0.35 0.32 0.29 0.27 0.25 0.25 0.25 0.25 0.25 0.25 0.26 0.27 0.27 0.28 0.28
0.24 0.26 0.27 0.27 0.28 0.29 0.31 0.34 0.34 0.34 0.34 0.33 0.31 0.34 0.33 0.33 0.33 0.33 0.33 0.33 0.34 0.35 0.36 0.37 0.38 0.37 0.36 0.36 0.35 0.33 0.32 0.30 0.28 0.26 0.26 0.26 0.26 0.26 0.26 0.27 0.27 0.28 0.28 0.28
Wind_Speed
11 14 15 17 20 20 19 18 17 17 20 17 15 16 16 17 22 25 29 31 33 36 40 41 41 42 44 45 47 48 49 49 49 50 46 45 48 47 46 45 44 42 39 36
11 12 17 22 24 19 19 19 17 17 17 16 17 14 19 23 27 29 31 33 37 40 41 42 43 44 46 47 49 50 50 50 51 46 46 46 47 46 43 42 39 38 35 34
11 16 20 15 14 17 17 16 17 15 17 16 16 19 23 26 29 32 34 38 39 41 41 43 45 46 48 48 49 50 50 52 49 49 46 45 46 43 39 37 37 35 34 32
14 17 14 15 23 20 19 16 17 18 17 14 19 23 28 28 31 35 37 39 41 41 43 46 47 48 49 50 51 52 53 53 51 47 43 43 44 40 36 35 35 34 31 30
14 16 21 20 16 16 18 19 19 16 18 20 24 28 28 31 36 37 39 40 42 44 46 47 49 48 51 52 54 53 51 48 49 42 41 41 41 39 34 34 32 30 30 32
14 16 17 18 18 19 21 21 16 19 20 24 29 29 31 35 36 37 40 42 43 45 46 48 48 52 53 53 52 50 51 48 44 43 41 39 39 35 31 30 30 29 30 32
17 19 20 22 20 19 19 19 21 21 24 28 29 31 34 36 37 39 41 42 44 47 48 50 52 52 52 52 51 50 50 48 45 42 38 37 34 28 28 28 28 29 30 31
17 19 21 19 21 20 22 26 24 25 27 30 31 33 35 37 39 41 42 45 47 49 50 51 51 52 52 51 52 51 49 46 43 38 34 27 25 22 23 25 25 27 29 31
18 20 20 20 22 23 23 24 26 29 30 32 32 34 36 39 40 42 45 48 50 50 51 52 51 51 51 51 51 49 45 40 36 32 26 24 20 20 22 23 25 27 29 30
23 25 27 25 23 23 26 27 29 29 30 31 33 35 38 40 42 45 47 49 49 51 51 50 51 50 50 49 48 44 39 35 31 25 21 19 16 19 21 23 25 26 28 29
28 28 28 24 24 26 29 28 28 28 30 31 34 37 40 42 45 47 48 48 51 50 50 51 52 50 48 46 42 37 33 29 24 20 17 14 16 19 21 23 24 25 27 28
28 28 26 26 26 28 28 27 27 29 31 33 36 38 42 44 45 47 48 50 49 50 51 51 51 48 45 39 34 31 27 24 20 18 16 16 17 20 21 23 24 25 25 26
26 25 24 25 27 27 26 27 28 31 33 36 38 41 43 45 46 47 47 48 49 50 50 50 48 43 38 33 29 26 23 20 19 16 15 15 17 20 22 23 23 24 24 24
26 25 26 25 26 25 26 28 30 32 35 37 40 42 43 45 46 47 47 49 50 50 49 47 43 37 34 29 26 23 20 19 16 15 15 16 18 21 22 22 23 25 24 23
25 26 25 25 25 26 27 30 32 35 37 40 41 42 43 45 46 46 48 49 49 49 47 43 37 33 30 25 22 20 19 17 16 16 15 17 19 21 21 22 23 24 24 22
23 22 23 24 26 27 29 32 35 37 39 41 41 42 43 45 45 46 47 47 47 46 44 38 33 30 25 22 20 19 18 17 17 16 16 17 19 20 21 21 23 24 23 22
23 25 25 27 28 30 32 34 36 39 40 41 41 42 43 43 44 44 45 46 45 43 39 34 30 26 22 20 19 18 17 17 17 16 17 17 19 20 20 21 22 23 23 22
24 24 26 28 30 32 34 36 38 39 40 41 42 42 42 42 43 45 45 45 43 39 35 31 27 24 20 19 18 18 18 17 17 17 17 18 18 19 19 20 21 23 23 22
24 26 28 30 32 34 37 38 39 40 41 41 42 42 42 42 43 44 44 42 40 36 32 28 24 22 19 19 18 18 17 17 18 18 18 18 18 18 18 19 21 22 23 23
26 28 31 33 35 37 38 39 40 41 41 42 42 42 42 42 43 43 41 39 37 34 30 26 24 21 19 18 18 18 18 18 18 18 18 18 17 17 18 20 21 22 23 23
30 32 34 36 37 38 38 40 40 41 41 41 41 42 42 42 42 40 38 36 34 31 29 25 22 19 19 19 18 19 19 18 18 18 18 17 17 17 18 19 21 21 22 23
33 35 37 37 37 39 39 40 41 41 40 40 40 41 41 40 39 38 36 34 33 29 27 23 20 19 18 18 19 19 19 19 18 18 17 17 17 17 18 19 20 21 22 22
36 36 37 37 38 40 40 41 41 41 40 40 40 40 39 38 38 36 35 32 30 29 26 22 21 20 19 19 20 20 20 19 19 18 18 17 18 18 19 20 21 21 22 22
35 36 37 38 40 40 41 41 40 39 39 39 38 38 38 37 35 34 31 31 29 27 24 22 22 21 20 20 20 20 20 20 19 18 18 19 19 20 20 21 21 22 22 23
35 36 37 38 39 40 41 41 38 37 35 35 37 37 36 34 33 32 30 29 27 26 24 22 22 22 21 21 21 21 21 20 20 20 20 20 21 21 21 22 22 22 23 23
35 36 37 38 39 40 39 38 36 34 33 35 35 34 33 32 31 31 29 28 26 24 23 23 22 22 22 22 23 23 22 22 21 21 21 21 22 23 23 24 24 23 24 24
36 37 38 39 39 39 38 36 33 32 33 34 34 32 32 31 30 29 28 26 25 25 25 25 25 25 24 24 24 24 24 24 23 23 23 23 24 24 24 24 24 25 25 25
Wind_Direction
311 314 318 319 316 313 303 297 292 294 288 294 304 299 310 315 314 313 313 315 316 314 315 315 315 315 314 314 314 314 314 313 313 312 311 313 314 313 312 312 313 313 312 311
306 310 325 317 314 311 306 298 295 304 299 302 302 312 312 312 314 313 316 314 315 315 315 316 317 316 315 315 315 314 313 313 311 311 311 312 314 313 312 313 314 314 313 312
304 322 319 323 325 329 321 314 307 299 296 302 313 314 315 314 316 316 316 316 316 316 316 318 318 317 317 315 314 314 313 314 311 308 308 310 313 313 312 314 314 315 314 313
307 316 323 327 322 312 317 314 310 302 302 315 314 315 317 317 317 316 316 316 316 316 316 317 317 316 317 316 314 313 312 311 310 305 303 310 313 311 311 313 314 315 314 315
308 310 311 315 322 328 323 312 310 307 310 309 312 313 313 317 317 315 316 316 316 316 316 316 317 317 318 317 316 315 313 314 312 306 302 307 311 309 308 313 315 315 316 317
306 307 310 316 325 321 316 305 316 312 309 310 312 310 310 314 314 315 315 317 317 317 318 318 318 317 317 317 317 317 317 314 313 309 305 305 308 307 307 311 315 317 318 319
295 301 305 305 314 311 310 312 312 310 307 310 309 308 311 314 315 317 317 318 320 319 318 317 317 317 317 317 317 316 316 314 313 310 305 305 305 302 307 312 315 318 320 322
295 300 302 309 308 307 309 309 308 310 310 308 309 310 313 316 317 317 319 319 319 319 318 318 318 317 317 317 318 317 317 315 313 310 308 307 307 306 310 315 319 322 323 325
288 297 297 309 307 307 310 308 307 308 309 307 308 312 315 316 317 318 319 319 319 319 319 318 318 318 318 318 320 319 319 319 317 315 310 307 308 310 316 320 322 324 326 328
292 294 294 302 303 304 307 306 305 305 307 309 310 312 314 316 317 318 318 319 319 319 319 319 320 320 319 320 320 320 320 320 320 318 314 311 312 316 320 322 324 326 328 331
291 291 294 297 298 301 305 304 304 306 309 310 312 314 315 316 317 317 318 319 319 319 319 320 320 320 320 320 321 322 322 322 322 323 323 318 320 324 325 326 327 329 330 333
291 295 291 294 296 300 302 302 305 308 310 312 313 315 317 317 318 318 319 319 319 319 320 320 321 320 320 321 322 323 324 324 324 323 319 319 323 325 327 329 329 331 332 334
294 295 297 296 296 298 299 303 305 309 310 312 315 316 317 317 318 319 319 320 320 320 320 321 321 321 322 322 322 323 324 323 323 323 321 323 326 329 330 331 331 332 333 335
291 291 294 293 296 296 299 302 306 309 311 314 315 316 317 318 318 319 320 320 321 321 321 321 320 320 321 320 320 321 321 322 321 321 320 323 326 328 330 332 334 336 336 335
288 289 291 291 294 296 301 305 307 309 312 314 315 316 317 318 318 320 320 321 322 322 321 321 319 319 319 316 317 318 318 317 318 317 317 320 324 328 330 332 334 336 337 337
285 287 291 294 297 300 303 306 308 310 312 313 315 315 316 317 318 320 321 323 324 324 323 321 318 318 316 314 315 315 317 316 315 313 314 318 323 327 329 332 335 337 337 337
284 287 292 296 298 301 304 306 308 310 311 312 313 314 316 317 318 320 322 323 323 323 322 320 318 318 314 311 311 312 313 314 313 311 312 315 320 324 328 331 334 337 338 337
288 291 294 297 300 302 304 306 308 309 310 311 312 313 314 315 317 320 322 324 324 322 321 319 316 315 312 310 310 310 309 310 311 310 311 313 317 321 324 329 333 336 338 337
289 292 295 298 302 304 305 306 307 308 309 309 311 312 313 314 316 319 321 321 323 321 321 320 316 312 309 309 308 308 308 307 309 308 309 311 313 317 322 327 331 334 337 337
293 295 298 300 302 303 304 305 306 307 308 310 311 312 313 313 315 317 318 319 320 320 319 316 314 308 306 307 308 308 307 305 307 307 308 309 310 313 319 324 327 331 335 336
294 296 298 300 301 303 303 305 306 307 309 309 311 312 312 313 314 315 316 317 319 319 317 314 311 305 305 304 305 307 306 304 306 306 306 307 309 311 315 321 326 329 332 335
295 298 299 300 302 303 304 304 305 307 308 309 310 312 312 313 313 314 314 313 316 317 316 311 309 305 305 305 305 306 305 303 302 304 304 305 306 310 314 318 322 326 329 332
297 299 300 301 302 303 304 305 305 305 306 308 310 312 312 312 313 313 313 313 312 313 311 306 305 302 302 304 304 304 304 302 300 299 301 302 303 305 309 314 318 321 325 328
298 299 301 302 303 304 305 305 304 304 305 307 309 311 312 312 312 313 311 312 310 311 307 303 302 299 298 301 302 303 303 301 299 297 298 300 300 304 306 309 312 316 320 323
299 301 303 304 305 305 305 305 304 304 306 309 312 313 313 312 311 313 312 312 309 309 306 303 301 298 296 295 298 301 301 299 297 297 297 297 300 301 304 307 308 310 314 317
300 302 304 305 306 307 307 306 304 304 306 310 311 313 313 313 312 312 311 310 309 307 306 303 303 300 297 295 295 296 297 296 294 295 295 295 298 300 301 303 305 307 309 311
301 302 304 305 306 306 305 303 302 303 305 308 310 312 314 313 313 312 311 309 308 308 305 303 301 298 297 295 293 293 296 294 291 292 292 293 296 298 300 301 302 303 305 308